Погода в Теленгит-Сортогой

Россия / Республика Алтай     50°00′44″N   88°44′52″E
темп.,
°C
ветер,
м/с
пор.,
м/с
влажн.,
%
обл.,
%
осадки,
мм/ч
давл.,
гПа
погр.,
м
25 февраля, чт
чт2501:00−14всв1176100 0.0 101721
04:00−14вюв117988 0.0 101522
07:00−15вюв018189 0.0 101220
10:00−10зсз1180100 0.0 101158
13:00−7зсз3670100 0.0 1009733
16:00−7зюз5106875 0.0 10111224
19:00−15зюз477684 0.0 1017101
22:00−18ююв3484100 0.1 102136
26 февраля, пт
пт2601:00−23ююз476850 0.1 102589
04:00−28сз11740 0.0 102819
07:00−31ссз11740 0.0 103319
10:00−27с127315 0.0 1034144
13:00−24зсз126810 0.0 1033506
16:00−23з136452 0.0 1032721
19:00−29ссв117574 0.0 103719
22:00−32сз117586 0.0 104119
27 февраля, сб
сб2701:00−34ссв017951 0.0 104219
04:00−35св118218 0.0 104319
07:00−35св118118 0.0 104219
10:00−30св017620 0.0 104073
13:00−26ю117316 0.0 1036249
16:00−23юз11710 0.0 1034289
19:00−29с118622 0.0 103819
22:00−31св118325 0.0 104219
28 февраля, вс
вс2801:00−33св118912 0.0 104419
04:00−34св11930 0.0 104519
07:00−34св11935 0.0 104719
10:00−29всв018444 0.0 104574
13:00−25ю117361 0.0 1040256
16:00−22ююз117466 0.0 1038239
19:00−28ссв018632 0.0 104120
22:00−29всв11803 0.0 104419
1 марта, пн
пн101:00−29св11854 0.0 104219
04:00−29св11854 0.0 104119
07:00−28ссв117648 0.0 103920
10:00−23ссз017383 0.0 103599
13:00−18ююз116892 0.0 1029219
16:00−15ююз1171100 0.0 1025198
19:00−19ссз118694 0.0 102720
22:00−18ссв118598 0.0 102820